Time,TemperatureF,DewpointF,PressureIn,WindDirection,WindDirectionDegrees,WindSpeedMPH,WindSpeedGustMPH,Humidity,HourlyPrecipIn,Conditions,Clouds,dailyrainin,SolarRadiationWatts/m^2,SoftwareType,DateUTC
2013-11-02 00:01:00,53.5,50.6,29.94,West,279,0.0,0.0,90,0.00,,---,0.00,0.00,VWS V14.00,2013-11-02 05:01:00,
2013-11-02 00:06:00,53.4,50.5,29.94,West,279,0.0,0.0,90,0.00,,---,0.00,0.00,VWS V14.00,2013-11-02 05:06:00,
2013-11-02 00:11:00,53.4,50.5,29.93,West,279,0.0,0.0,90,0.00,,---,0.00,0.00,VWS V14.00,2013-11-02 05:11:00,
2013-11-02 00:16:00,53.3,50.5,29.94,West,279,0.0,0.0,90,0.00,,---,0.00,0.00,VWS V14.00,2013-11-02 05:16:00,
2013-11-02 00:21:00,53.4,50.5,29.93,West,279,0.0,0.0,90,0.00,,---,0.00,0.00,VWS V14.00,2013-11-02 05:21:00,
2013-11-02 00:26:00,53.4,50.8,29.93,West,279,0.0,0.0,91,0.00,,---,0.00,0.00,VWS V14.00,2013-11-02 05:26:00,
2013-11-02 00:31:00,53.4,50.8,29.93,West,279,0.0,0.0,91,0.00,,---,0.00,0.00,VWS V14.00,2013-11-02 05:31:00,
2013-11-02 00:36:00,53.4,50.8,29.93,West,279,0.0,0.0,91,0.00,,---,0.00,0.00,VWS V14.00,2013-11-02 05:36:00,
2013-11-02 00:41:00,53.4,50.8,29.93,West,279,0.0,0.0,91,0.00,,---,0.00,0.00,VWS V14.00,2013-11-02 05:41:00,
2013-11-02 00:46:00,53.5,50.9,29.93,West,279,0.0,0.0,91,0.00,,---,0.00,0.00,VWS V14.00,2013-11-02 05:46:00,
2013-11-02 00:51:00,53.7,51.1,29.94,West,279,0.0,1.0,91,0.00,,---,0.00,0.00,VWS V14.00,2013-11-02 05:51:00,
2013-11-02 00:56:00,53.8,51.2,29.93,West,279,0.0,1.0,91,0.00,,---,0.00,0.00,VWS V14.00,2013-11-02 05:56:00,
2013-11-02 01:01:00,53.8,51.2,29.93,West,279,0.0,0.0,91,0.00,,---,0.00,0.00,VWS V14.00,2013-11-02 06:01:00,
2013-11-02 01:06:00,53.8,51.2,29.93,West,279,0.0,0.0,91,0.00,,---,0.00,0.00,VWS V14.00,2013-11-02 06:06:00,
2013-11-02 01:11:00,53.8,51.2,29.93,West,279,0.0,0.0,91,0.00,,---,0.00,0.00,VWS V14.00,2013-11-02 06:11:00,
2013-11-02 01:16:00,53.9,51.3,29.93,West,279,0.0,0.0,91,0.00,,---,0.00,0.00,VWS V14.00,2013-11-02 06:16:00,
2013-11-02 01:21:00,53.9,51.6,29.94,West,279,0.0,0.0,92,0.00,,---,0.00,0.00,VWS V14.00,2013-11-02 06:21:00,
2013-11-02 01:26:00,53.9,51.6,29.94,West,279,0.0,0.0,92,0.00,,---,0.00,0.00,VWS V14.00,2013-11-02 06:26:00,
2013-11-02 01:31:00,54.0,51.7,29.94,West,279,0.0,0.0,92,0.00,,---,0.00,0.00,VWS V14.00,2013-11-02 06:31:00,
2013-11-02 01:36:00,54.0,51.7,29.94,West,279,0.0,0.0,92,0.00,,---,0.00,0.00,VWS V14.00,2013-11-02 06:36:00,
2013-11-02 01:41:00,54.0,51.7,29.94,West,279,0.0,0.0,92,0.00,,---,0.00,0.00,VWS V14.00,2013-11-02 06:41:00,
2013-11-02 01:46:00,54.0,51.7,29.94,West,279,0.0,0.0,92,0.00,,---,0.00,0.00,VWS V14.00,2013-11-02 06:46:00,
2013-11-02 01:51:00,54.0,51.7,29.94,West,279,0.0,0.0,92,0.00,,---,0.00,0.00,VWS V14.00,2013-11-02 06:51:00,
2013-11-02 01:56:00,54.1,51.8,29.94,West,279,0.0,0.0,92,0.00,,---,0.00,0.00,VWS V14.00,2013-11-02 06:56:00,
2013-11-02 02:01:00,54.1,51.8,29.94,West,279,0.0,0.0,92,0.00,,---,0.00,0.00,VWS V14.00,2013-11-02 07:01:00,
2013-11-02 02:06:00,54.1,51.8,29.94,West,279,0.0,0.0,92,0.00,,---,0.00,0.00,VWS V14.00,2013-11-02 07:06:00,
2013-11-02 02:11:00,54.1,51.8,29.94,West,279,1.0,1.0,92,0.00,,---,0.00,0.00,VWS V14.00,2013-11-02 07:11:00,
2013-11-02 02:16:00,54.2,51.9,29.94,West,279,1.0,2.0,92,0.00,,---,0.00,0.00,VWS V14.00,2013-11-02 07:16:00,
2013-11-02 02:21:00,54.3,52.0,29.94,West,279,1.0,1.0,92,0.00,,---,0.00,0.00,VWS V14.00,2013-11-02 07:21:00,
2013-11-02 02:26:00,54.5,52.2,29.95,NNW,340,4.0,5.0,92,0.00,,---,0.00,0.00,VWS V14.00,2013-11-02 07:26:00,
2013-11-02 02:31:00,54.6,52.3,29.95,NW,324,2.0,3.0,92,0.00,,---,0.00,0.00,VWS V14.00,2013-11-02 07:31:00,
2013-11-02 02:36:00,54.8,52.5,29.95,NW,309,1.0,2.0,92,0.00,,---,0.00,0.00,VWS V14.00,2013-11-02 07:36:00,
2013-11-02 02:41:00,55.0,52.7,29.96,West,280,5.0,5.0,92,0.00,,---,0.00,0.00,VWS V14.00,2013-11-02 07:41:00,
2013-11-02 02:46:00,55.2,52.9,29.96,West,275,2.0,2.0,92,0.00,,---,0.00,0.00,VWS V14.00,2013-11-02 07:46:00,
2013-11-02 02:51:00,55.5,52.9,29.96,West,264,2.0,2.0,91,0.00,,---,0.00,0.00,VWS V14.00,2013-11-02 07:51:00,
2013-11-02 02:56:00,55.8,52.6,29.96,West,259,5.0,8.0,89,0.00,,---,0.00,0.00,VWS V14.00,2013-11-02 07:56:00,
2013-11-02 03:01:00,56.5,52.4,29.96,WNW,284,6.0,7.0,86,0.00,,---,0.00,0.00,VWS V14.00,2013-11-02 08:01:00,
2013-11-02 03:06:00,57.4,52.0,29.96,WNW,294,3.0,8.0,82,0.00,,---,0.00,0.00,VWS V14.00,2013-11-02 08:06:00,
2013-11-02 03:11:00,58.2,51.7,29.96,NW,309,3.0,6.0,79,0.00,,---,0.00,0.00,VWS V14.00,2013-11-02 08:11:00,
2013-11-02 03:16:00,58.7,51.5,29.96,WNW,292,2.0,6.0,77,0.00,,---,0.00,0.00,VWS V14.00,2013-11-02 08:16:00,
2013-11-02 03:21:00,59.0,51.5,29.96,NW,325,3.0,7.0,76,0.00,,---,0.00,0.00,VWS V14.00,2013-11-02 08:21:00,
2013-11-02 03:26:00,59.3,51.4,29.97,NNW,330,2.0,4.0,75,0.00,,---,0.00,0.00,VWS V14.00,2013-11-02 08:26:00,
2013-11-02 03:31:00,59.4,51.5,29.97,WNW,301,5.0,5.0,75,0.00,,---,0.00,0.00,VWS V14.00,2013-11-02 08:31:00,
2013-11-02 03:36:00,59.3,51.0,29.97,NNW,342,5.0,5.0,74,0.00,,---,0.00,0.00,VWS V14.00,2013-11-02 08:36:00,
2013-11-02 03:41:00,59.3,51.0,29.97,NW,321,8.0,8.0,74,0.00,,---,0.00,0.00,VWS V14.00,2013-11-02 08:41:00,
2013-11-02 03:46:00,59.1,50.8,29.97,NNW,329,4.0,4.0,74,0.00,,---,0.00,0.00,VWS V14.00,2013-11-02 08:46:00,
2013-11-02 03:51:00,59.1,50.8,29.97,WNW,300,2.0,3.0,74,0.00,,---,0.00,0.00,VWS V14.00,2013-11-02 08:51:00,
2013-11-02 03:56:00,59.0,50.7,29.97,West,267,5.0,8.0,74,0.00,,---,0.00,0.00,VWS V14.00,2013-11-02 08:56:00,
2013-11-02 04:01:00,58.9,50.6,29.98,WNW,300,4.0,6.0,74,0.00,,---,0.00,0.00,VWS V14.00,2013-11-02 09:01:00,
2013-11-02 04:06:00,58.8,50.2,29.97,NW,311,3.0,5.0,73,0.00,,---,0.00,0.00,VWS V14.00,2013-11-02 09:06:00,
2013-11-02 04:11:00,58.8,50.2,29.98,NW,319,3.0,8.0,73,0.00,,---,0.00,0.00,VWS V14.00,2013-11-02 09:11:00,
2013-11-02 04:16:00,58.6,50.0,29.98,WNW,292,6.0,6.0,73,0.00,,---,0.00,0.00,VWS V14.00,2013-11-02 09:16:00,
2013-11-02 04:21:00,58.5,49.9,29.98,NW,315,2.0,5.0,73,0.00,,---,0.00,0.00,VWS V14.00,2013-11-02 09:21:00,
2013-11-02 04:26:00,58.3,50.1,29.99,WNW,298,8.0,8.0,74,0.00,,---,0.00,0.00,VWS V14.00,2013-11-02 09:26:00,
2013-11-02 04:31:00,58.0,49.8,29.99,WNW,303,6.0,8.0,74,0.00,,---,0.00,0.00,VWS V14.00,2013-11-02 09:31:00,
2013-11-02 04:36:00,57.8,49.6,29.99,WNW,298,6.0,7.0,74,0.00,,---,0.00,0.00,VWS V14.00,2013-11-02 09:36:00,
2013-11-02 04:41:00,57.6,49.8,29.99,NW,316,3.0,4.0,75,0.00,,---,0.00,0.00,VWS V14.00,2013-11-02 09:41:00,
2013-11-02 04:46:00,57.5,49.7,29.99,WNW,296,3.0,5.0,75,0.00,,---,0.00,0.00,VWS V14.00,2013-11-02 09:46:00,
2013-11-02 04:51:00,57.3,49.5,29.99,NW,308,2.0,4.0,75,0.00,,---,0.00,0.00,VWS V14.00,2013-11-02 09:51:00,
2013-11-02 04:56:00,57.1,49.3,30.00,NW,309,3.0,5.0,75,0.00,,---,0.00,0.00,VWS V14.00,2013-11-02 09:56:00,
2013-11-02 05:01:00,57.0,49.5,30.00,NW,307,1.0,2.0,76,0.00,,---,0.00,0.00,VWS V14.00,2013-11-02 10:01:00,
2013-11-02 05:06:00,56.8,49.3,30.00,NNW,331,2.0,3.0,76,0.00,,---,0.00,0.00,VWS V14.00,2013-11-02 10:06:00,
2013-11-02 05:11:00,56.7,49.2,30.01,NNW,330,2.0,3.0,76,0.00,,---,0.00,0.00,VWS V14.00,2013-11-02 10:11:00,
2013-11-02 05:16:00,56.6,49.1,30.01,NW,312,1.0,2.0,76,0.00,,---,0.00,0.00,VWS V14.00,2013-11-02 10:16:00,
2013-11-02 05:21:00,56.5,49.4,30.01,NNW,331,3.0,4.0,77,0.00,,---,0.00,0.00,VWS V14.00,2013-11-02 10:21:00,
2013-11-02 05:26:00,56.4,49.3,30.01,NW,319,3.0,5.0,77,0.00,,---,0.00,0.00,VWS V14.00,2013-11-02 10:26:00,
2013-11-02 05:31:00,56.4,48.9,30.02,NNW,336,3.0,7.0,76,0.00,,---,0.00,0.00,VWS V14.00,2013-11-02 10:31:00,
2013-11-02 05:36:00,56.3,48.8,30.02,NW,318,4.0,4.0,76,0.00,,---,0.00,0.00,VWS V14.00,2013-11-02 10:36:00,
2013-11-02 05:41:00,56.3,48.8,30.02,NNW,331,3.0,5.0,76,0.00,,---,0.00,0.00,VWS V14.00,2013-11-02 10:41:00,
2013-11-02 05:46:00,56.2,48.8,30.03,WNW,292,4.0,4.0,76,0.00,,---,0.00,0.00,VWS V14.00,2013-11-02 10:46:00,
2013-11-02 05:51:00,56.1,48.7,30.03,NW,313,1.0,6.0,76,0.00,,---,0.00,0.00,VWS V14.00,2013-11-02 10:51:00,
2013-11-02 05:56:00,56.0,48.5,30.03,NW,311,5.0,6.0,76,0.00,,---,0.00,0.00,VWS V14.00,2013-11-02 10:56:00,
2013-11-02 06:01:00,55.9,48.5,30.04,North,355,6.0,6.0,76,0.00,,---,0.00,0.00,VWS V14.00,2013-11-02 11:01:00,
2013-11-02 06:06:00,55.7,48.3,30.04,NNW,329,4.0,4.0,76,0.00,,---,0.00,0.00,VWS V14.00,2013-11-02 11:06:00,
2013-11-02 06:11:00,55.6,47.8,30.04,NNW,341,4.0,4.0,75,0.00,,---,0.00,0.00,VWS V14.00,2013-11-02 11:11:00,
2013-11-02 06:16:00,55.5,48.1,30.04,NNW,336,3.0,4.0,76,0.00,,---,0.00,0.00,VWS V14.00,2013-11-02 11:16:00,
2013-11-02 06:21:00,55.4,48.0,30.04,NW,313,3.0,4.0,76,0.00,,---,0.00,0.00,VWS V14.00,2013-11-02 11:21:00,
2013-11-02 06:26:00,55.2,47.8,30.05,NNW,335,2.0,2.0,76,0.00,,---,0.00,0.00,VWS V14.00,2013-11-02 11:26:00,
2013-11-02 06:31:00,55.1,47.7,30.05,NNW,332,1.0,4.0,76,0.00,,---,0.00,0.00,VWS V14.00,2013-11-02 11:31:00,
2013-11-02 06:36:00,54.9,47.5,30.05,WNW,297,2.0,2.0,76,0.00,,---,0.00,0.00,VWS V14.00,2013-11-02 11:36:00,
2013-11-02 06:41:00,54.8,47.4,30.05,NW,308,2.0,3.0,76,0.00,,---,0.00,0.00,VWS V14.00,2013-11-02 11:41:00,
2013-11-02 06:46:00,54.6,47.2,30.05,NW,325,2.0,3.0,76,0.00,,---,0.00,0.00,VWS V14.00,2013-11-02 11:46:00,
2013-11-02 06:51:00,54.5,47.1,30.06,NW,312,1.0,2.0,76,0.00,,---,0.00,0.00,VWS V14.00,2013-11-02 11:51:00,
2013-11-02 06:56:00,54.3,47.2,30.06,NW,314,3.0,3.0,77,0.00,,---,0.00,0.00,VWS V14.00,2013-11-02 11:56:00,
2013-11-02 07:01:00,54.1,47.4,30.06,WNW,293,2.0,2.0,78,0.00,,---,0.00,0.00,VWS V14.00,2013-11-02 12:01:00,
2013-11-02 07:06:00,54.0,47.3,30.06,WNW,294,1.0,1.0,78,0.00,,---,0.00,0.00,VWS V14.00,2013-11-02 12:06:00,
2013-11-02 07:11:00,53.8,47.1,30.06,NW,307,1.0,2.0,78,0.00,,---,0.00,0.00,VWS V14.00,2013-11-02 12:11:00,
2013-11-02 07:16:00,53.6,47.3,30.06,NW,305,2.0,3.0,79,0.00,,---,0.00,0.00,VWS V14.00,2013-11-02 12:16:00,
2013-11-02 07:21:00,53.4,47.1,30.07,NNW,328,3.0,4.0,79,0.00,,---,0.00,0.00,VWS V14.00,2013-11-02 12:21:00,
2013-11-02 07:26:00,53.3,47.0,30.07,WNW,303,2.0,2.0,79,0.00,,---,0.00,0.00,VWS V14.00,2013-11-02 12:26:00,
2013-11-02 07:31:00,53.2,46.9,30.07,WNW,290,2.0,2.0,79,0.00,,---,0.00,7.00,VWS V14.00,2013-11-02 12:31:00,
2013-11-02 07:36:00,53.1,47.1,30.07,WNW,300,2.0,3.0,80,0.00,,---,0.00,9.00,VWS V14.00,2013-11-02 12:36:00,
2013-11-02 07:41:00,52.9,46.9,30.07,NW,304,2.0,2.0,80,0.00,,---,0.00,12.00,VWS V14.00,2013-11-02 12:41:00,
2013-11-02 07:46:00,52.8,46.8,30.08,WNW,303,1.0,2.0,80,0.00,,---,0.00,16.00,VWS V14.00,2013-11-02 12:46:00,
2013-11-02 07:51:00,52.8,47.1,30.08,WNW,303,0.0,1.0,81,0.00,,---,0.00,25.00,VWS V14.00,2013-11-02 12:51:00,
2013-11-02 07:56:00,52.7,47.0,30.08,WNW,300,2.0,2.0,81,0.00,,---,0.00,37.00,VWS V14.00,2013-11-02 12:56:00,
2013-11-02 08:01:00,52.7,47.0,30.08,WNW,292,0.0,1.0,81,0.00,,---,0.00,44.00,VWS V14.00,2013-11-02 13:01:00,
2013-11-02 08:06:00,52.8,47.5,30.08,NNW,335,2.0,3.0,82,0.00,,---,0.00,58.00,VWS V14.00,2013-11-02 13:06:00,
2013-11-02 08:11:00,53.0,47.3,30.08,NNW,330,2.0,3.0,81,0.00,,---,0.00,74.00,VWS V14.00,2013-11-02 13:11:00,
2013-11-02 08:16:00,53.1,47.4,30.08,WNW,294,2.0,2.0,81,0.00,,---,0.00,83.00,VWS V14.00,2013-11-02 13:16:00,
2013-11-02 08:21:00,53.4,47.7,30.08,NW,310,2.0,4.0,81,0.00,,---,0.00,107.00,VWS V14.00,2013-11-02 13:21:00,
2013-11-02 08:26:00,53.7,47.7,30.09,WNW,300,4.0,4.0,80,0.00,,---,0.00,127.00,VWS V14.00,2013-11-02 13:26:00,
2013-11-02 08:31:00,54.1,48.1,30.09,NW,318,3.0,3.0,80,0.00,,---,0.00,148.00,VWS V14.00,2013-11-02 13:31:00,
2013-11-02 08:36:00,54.4,48.0,30.09,NW,306,3.0,6.0,79,0.00,,---,0.00,169.00,VWS V14.00,2013-11-02 13:36:00,
2013-11-02 08:41:00,54.7,48.0,30.09,NW,311,5.0,5.0,78,0.00,,---,0.00,190.00,VWS V14.00,2013-11-02 13:41:00,
2013-11-02 08:46:00,55.0,47.9,30.10,WSW,257,6.0,6.0,77,0.00,,---,0.00,207.00,VWS V14.00,2013-11-02 13:46:00,
2013-11-02 08:51:00,55.4,48.3,30.10,WNW,300,3.0,5.0,77,0.00,,---,0.00,220.00,VWS V14.00,2013-11-02 13:51:00,
2013-11-02 08:56:00,55.7,48.3,30.10,NNW,336,5.0,5.0,76,0.00,,---,0.00,236.00,VWS V14.00,2013-11-02 13:56:00,
2013-11-02 09:01:00,56.1,48.7,30.10,NNW,338,6.0,6.0,76,0.00,,---,0.00,251.00,VWS V14.00,2013-11-02 14:01:00,
2013-11-02 09:05:00,56.4,48.2,30.11,NNW,327,6.0,7.0,74,0.00,,---,0.00,271.00,VWS V14.00,2013-11-02 14:05:00,
2013-11-02 09:10:00,56.7,48.2,30.11,NW,318,6.0,6.0,73,0.00,,---,0.00,287.00,VWS V14.00,2013-11-02 14:10:00,
2013-11-02 09:15:00,57.0,48.4,30.11,NNW,346,3.0,4.0,73,0.00,,---,0.00,302.00,VWS V14.00,2013-11-02 14:15:00,
2013-11-02 09:20:00,57.3,48.4,30.11,NNW,338,5.0,5.0,72,0.00,,---,0.00,316.00,VWS V14.00,2013-11-02 14:20:00,
2013-11-02 09:25:00,57.7,48.4,30.11,NNW,338,3.0,5.0,71,0.00,,---,0.00,330.00,VWS V14.00,2013-11-02 14:25:00,
2013-11-02 09:30:00,58.1,48.0,30.11,NNW,335,4.0,7.0,69,0.00,,---,0.00,348.00,VWS V14.00,2013-11-02 14:30:00,
2013-11-02 09:35:00,58.6,48.9,30.12,NW,306,4.0,4.0,70,0.00,,---,0.00,364.00,VWS V14.00,2013-11-02 14:35:00,
2013-11-02 09:40:00,59.1,49.0,30.12,NW,321,3.0,3.0,69,0.00,,---,0.00,378.00,VWS V14.00,2013-11-02 14:40:00,
2013-11-02 09:45:00,59.5,48.2,30.12,WNW,288,6.0,6.0,66,0.00,,---,0.00,392.00,VWS V14.00,2013-11-02 14:45:00,
2013-11-02 09:50:00,60.0,48.2,30.12,WNW,299,3.0,4.0,65,0.00,,---,0.00,404.00,VWS V14.00,2013-11-02 14:50:00,
2013-11-02 09:55:00,60.3,47.7,30.12,NNW,332,7.0,7.0,63,0.00,,---,0.00,418.00,VWS V14.00,2013-11-02 14:55:00,
2013-11-02 10:00:00,60.7,48.0,30.12,NW,319,5.0,6.0,63,0.00,,---,0.00,432.00,VWS V14.00,2013-11-02 15:00:00,
2013-11-02 10:05:00,61.2,48.1,30.12,North,360,5.0,5.0,62,0.00,,---,0.00,448.00,VWS V14.00,2013-11-02 15:05:00,
2013-11-02 10:10:00,61.7,48.6,30.12,NNW,331,3.0,5.0,62,0.00,,---,0.00,462.00,VWS V14.00,2013-11-02 15:10:00,
2013-11-02 10:15:00,62.3,48.2,30.12,NW,321,4.0,5.0,60,0.00,,---,0.00,475.00,VWS V14.00,2013-11-02 15:15:00,
2013-11-02 10:20:00,62.7,48.2,30.12,NW,321,1.0,3.0,59,0.00,,---,0.00,490.00,VWS V14.00,2013-11-02 15:20:00,
2013-11-02 10:25:00,63.2,47.7,30.12,WNW,285,4.0,4.0,57,0.00,,---,0.00,499.00,VWS V14.00,2013-11-02 15:25:00,
2013-11-02 10:30:00,63.5,47.1,30.13,NW,316,6.0,6.0,55,0.00,,---,0.00,512.00,VWS V14.00,2013-11-02 15:30:00,
2013-11-02 10:35:00,63.5,46.6,30.13,West,265,5.0,7.0,54,0.00,,---,0.00,524.00,VWS V14.00,2013-11-02 15:35:00,
2013-11-02 10:40:00,63.4,47.0,30.13,NW,323,4.0,7.0,55,0.00,,---,0.00,534.00,VWS V14.00,2013-11-02 15:40:00,
2013-11-02 10:45:00,63.5,46.6,30.13,West,278,13.0,13.0,54,0.00,,---,0.00,547.00,VWS V14.00,2013-11-02 15:45:00,
2013-11-02 10:50:00,63.5,47.1,30.13,WNW,297,8.0,11.0,55,0.00,,---,0.00,555.00,VWS V14.00,2013-11-02 15:50:00,
2013-11-02 10:55:00,63.8,47.3,30.13,WNW,286,6.0,7.0,55,0.00,,---,0.00,566.00,VWS V14.00,2013-11-02 15:55:00,
2013-11-02 11:00:00,64.2,46.7,30.13,NNW,327,4.0,10.0,53,0.00,,---,0.00,575.00,VWS V14.00,2013-11-02 16:00:00,
2013-11-02 11:05:00,64.5,47.0,30.13,NW,322,6.0,6.0,53,0.00,,---,0.00,584.00,VWS V14.00,2013-11-02 16:05:00,
2013-11-02 11:10:00,64.8,46.8,30.13,NW,309,4.0,4.0,52,0.00,,---,0.00,594.00,VWS V14.00,2013-11-02 16:10:00,
2013-11-02 11:15:00,65.1,47.1,30.13,NNW,344,4.0,4.0,52,0.00,,---,0.00,605.00,VWS V14.00,2013-11-02 16:15:00,
2013-11-02 11:20:00,65.5,46.4,30.13,NW,326,4.0,4.0,50,0.00,,---,0.00,612.00,VWS V14.00,2013-11-02 16:20:00,
2013-11-02 11:25:00,65.8,45.6,30.13,NNW,346,5.0,7.0,48,0.00,,---,0.00,622.00,VWS V14.00,2013-11-02 16:25:00,
2013-11-02 11:30:00,66.0,44.7,30.13,NW,313,5.0,5.0,46,0.00,,---,0.00,628.00,VWS V14.00,2013-11-02 16:30:00,
2013-11-02 11:35:00,66.1,45.3,30.13,NNW,338,5.0,7.0,47,0.00,,---,0.00,636.00,VWS V14.00,2013-11-02 16:35:00,
2013-11-02 11:40:00,66.4,43.8,30.13,WNW,286,6.0,7.0,44,0.00,,---,0.00,645.00,VWS V14.00,2013-11-02 16:40:00,
2013-11-02 11:45:00,66.5,43.9,30.13,WNW,297,8.0,9.0,44,0.00,,---,0.00,652.00,VWS V14.00,2013-11-02 16:45:00,
2013-11-02 11:50:00,66.4,42.6,30.13,NW,317,8.0,8.0,42,0.00,,---,0.00,659.00,VWS V14.00,2013-11-02 16:50:00,
2013-11-02 11:55:00,66.2,41.8,30.13,WNW,299,5.0,6.0,41,0.00,,---,0.00,666.00,VWS V14.00,2013-11-02 16:55:00,
2013-11-02 12:00:00,66.3,43.2,30.13,NW,318,9.0,9.0,43,0.00,,---,0.00,668.00,VWS V14.00,2013-11-02 17:00:00,
2013-11-02 12:05:00,66.4,42.0,30.13,West,272,6.0,7.0,41,0.00,,---,0.00,673.00,VWS V14.00,2013-11-02 17:05:00,
2013-11-02 12:10:00,66.5,42.7,30.13,NW,312,9.0,9.0,42,0.00,,---,0.00,680.00,VWS V14.00,2013-11-02 17:10:00,
2013-11-02 12:15:00,66.6,42.2,30.13,NW,318,7.0,7.0,41,0.00,,---,0.00,680.00,VWS V14.00,2013-11-02 17:15:00,
2013-11-02 12:20:00,66.8,43.0,30.12,NNW,336,7.0,7.0,42,0.00,,---,0.00,684.00,VWS V14.00,2013-11-02 17:20:00,
2013-11-02 12:25:00,66.9,43.1,30.12,NW,319,11.0,11.0,42,0.00,,---,0.00,687.00,VWS V14.00,2013-11-02 17:25:00,
2013-11-02 12:30:00,66.8,42.4,30.12,NW,321,6.0,7.0,41,0.00,,---,0.00,686.00,VWS V14.00,2013-11-02 17:30:00,
2013-11-02 12:35:00,66.6,42.2,30.12,NNW,339,8.0,8.0,41,0.00,,---,0.00,691.00,VWS V14.00,2013-11-02 17:35:00,
2013-11-02 12:40:00,66.5,42.7,30.12,NNW,343,9.0,10.0,42,0.00,,---,0.00,693.00,VWS V14.00,2013-11-02 17:40:00,
2013-11-02 12:45:00,66.7,42.3,30.12,North,355,13.0,13.0,41,0.00,,---,0.00,694.00,VWS V14.00,2013-11-02 17:45:00,
2013-11-02 12:50:00,66.8,42.4,30.11,NNW,339,8.0,10.0,41,0.00,,---,0.00,696.00,VWS V14.00,2013-11-02 17:50:00,
2013-11-02 12:55:00,66.9,43.1,30.11,NW,322,5.0,10.0,42,0.00,,---,0.00,694.00,VWS V14.00,2013-11-02 17:55:00,
2013-11-02 13:00:00,67.2,42.7,30.11,NNW,331,4.0,10.0,41,0.00,,---,0.00,698.00,VWS V14.00,2013-11-02 18:00:00,
2013-11-02 13:05:00,67.2,42.1,30.11,NNW,344,4.0,11.0,40,0.00,,---,0.00,693.00,VWS V14.00,2013-11-02 18:05:00,
2013-11-02 13:10:00,67.4,42.3,30.11,North,349,5.0,9.0,40,0.00,,---,0.00,696.00,VWS V14.00,2013-11-02 18:10:00,
2013-11-02 13:15:00,67.4,41.6,30.11,NNW,347,7.0,12.0,39,0.00,,---,0.00,691.00,VWS V14.00,2013-11-02 18:15:00,
2013-11-02 13:20:00,67.2,42.1,30.11,NW,317,10.0,10.0,40,0.00,,---,0.00,689.00,VWS V14.00,2013-11-02 18:20:00,
2013-11-02 13:25:00,67.1,42.6,30.11,NW,312,7.0,11.0,41,0.00,,---,0.00,687.00,VWS V14.00,2013-11-02 18:25:00,
2013-11-02 13:30:00,67.2,42.7,30.10,NW,309,10.0,13.0,41,0.00,,---,0.00,686.00,VWS V14.00,2013-11-02 18:30:00,
2013-11-02 13:35:00,67.1,42.0,30.10,North,355,7.0,10.0,40,0.00,,---,0.00,682.00,VWS V14.00,2013-11-02 18:35:00,
2013-11-02 13:40:00,67.1,43.3,30.10,NW,325,8.0,8.0,42,0.00,,---,0.00,680.00,VWS V14.00,2013-11-02 18:40:00,
2013-11-02 13:45:00,67.2,42.7,30.10,NW,309,5.0,8.0,41,0.00,,---,0.00,675.00,VWS V14.00,2013-11-02 18:45:00,
2013-11-02 13:50:00,67.2,40.8,30.10,NNW,348,11.0,14.0,38,0.00,,---,0.00,670.00,VWS V14.00,2013-11-02 18:50:00,
2013-11-02 13:55:00,66.9,41.8,30.10,WNW,300,9.0,12.0,40,0.00,,---,0.00,664.00,VWS V14.00,2013-11-02 18:55:00,
2013-11-02 14:00:00,67.0,42.5,30.10,WNW,292,2.0,8.0,41,0.00,,---,0.00,657.00,VWS V14.00,2013-11-02 19:00:00,
2013-11-02 14:05:00,67.2,42.7,30.10,NNW,329,6.0,6.0,41,0.00,,---,0.00,654.00,VWS V14.00,2013-11-02 19:05:00,
2013-11-02 14:10:00,67.1,41.3,30.10,NW,325,6.0,14.0,39,0.00,,---,0.00,652.00,VWS V14.00,2013-11-02 19:10:00,
2013-11-02 14:15:00,67.0,41.2,30.10,NNW,348,6.0,11.0,39,0.00,,---,0.00,640.00,VWS V14.00,2013-11-02 19:15:00,
2013-11-02 14:20:00,67.0,43.2,30.10,NNE,15,2.0,7.0,42,0.00,,---,0.00,633.00,VWS V14.00,2013-11-02 19:20:00,
2013-11-02 14:25:00,67.1,42.0,30.10,North,355,7.0,9.0,40,0.00,,---,0.00,626.00,VWS V14.00,2013-11-02 19:25:00,
2013-11-02 14:30:00,67.2,42.7,30.09,North,9,2.0,7.0,41,0.00,,---,0.00,617.00,VWS V14.00,2013-11-02 19:30:00,
2013-11-02 14:35:00,67.4,42.3,30.09,NNW,344,8.0,11.0,40,0.00,,---,0.00,608.00,VWS V14.00,2013-11-02 19:35:00,
2013-11-02 14:40:00,67.3,42.8,30.09,North,360,6.0,11.0,41,0.00,,---,0.00,599.00,VWS V14.00,2013-11-02 19:40:00,
2013-11-02 14:45:00,67.2,42.1,30.09,NNW,348,9.0,14.0,40,0.00,,---,0.00,591.00,VWS V14.00,2013-11-02 19:45:00,
2013-11-02 14:50:00,67.1,42.0,30.09,WNW,293,4.0,10.0,40,0.00,,---,0.00,582.00,VWS V14.00,2013-11-02 19:50:00,
2013-11-02 14:55:00,67.2,41.4,30.08,North,355,8.0,14.0,39,0.00,,---,0.00,568.00,VWS V14.00,2013-11-02 19:55:00,
2013-11-02 15:00:00,67.2,40.8,30.08,NW,311,10.0,11.0,38,0.00,,---,0.00,561.00,VWS V14.00,2013-11-02 20:00:00,
2013-11-02 15:05:00,67.0,41.2,30.08,North,355,11.0,16.0,39,0.00,,---,0.00,552.00,VWS V14.00,2013-11-02 20:05:00,
2013-11-02 15:10:00,66.8,41.7,30.08,NNW,346,6.0,9.0,40,0.00,,---,0.00,540.00,VWS V14.00,2013-11-02 20:10:00,
2013-11-02 15:15:00,66.8,41.1,30.08,North,355,10.0,12.0,39,0.00,,---,0.00,526.00,VWS V14.00,2013-11-02 20:15:00,
2013-11-02 15:20:00,66.8,41.7,30.08,NW,320,5.0,8.0,40,0.00,,---,0.00,517.00,VWS V14.00,2013-11-02 20:20:00,
2013-11-02 15:25:00,66.9,41.2,30.08,NNW,341,6.0,12.0,39,0.00,,---,0.00,503.00,VWS V14.00,2013-11-02 20:25:00,
2013-11-02 15:30:00,66.9,41.2,30.08,North,355,5.0,11.0,39,0.00,,---,0.00,494.00,VWS V14.00,2013-11-02 20:30:00,
2013-11-02 15:35:00,66.9,41.2,30.08,NW,305,8.0,14.0,39,0.00,,---,0.00,476.00,VWS V14.00,2013-11-02 20:35:00,
2013-11-02 15:40:00,66.7,41.6,30.08,NNW,341,10.0,13.0,40,0.00,,---,0.00,468.00,VWS V14.00,2013-11-02 20:40:00,
2013-11-02 15:45:00,66.7,41.6,30.08,North,5,8.0,8.0,40,0.00,,---,0.00,452.00,VWS V14.00,2013-11-02 20:45:00,
2013-11-02 15:50:00,66.8,41.1,30.08,NNW,334,5.0,9.0,39,0.00,,---,0.00,438.00,VWS V14.00,2013-11-02 20:50:00,
2013-11-02 15:55:00,66.7,42.3,30.08,WNW,293,12.0,12.0,41,0.00,,---,0.00,425.00,VWS V14.00,2013-11-02 20:55:00,
2013-11-02 16:00:00,66.6,40.9,30.08,NNW,334,9.0,10.0,39,0.00,,---,0.00,410.00,VWS V14.00,2013-11-02 21:00:00,
2013-11-02 16:05:00,66.5,42.1,30.08,NNW,336,7.0,11.0,41,0.00,,---,0.00,394.00,VWS V14.00,2013-11-02 21:05:00,
2013-11-02 16:10:00,66.5,42.1,30.08,North,355,7.0,7.0,41,0.00,,---,0.00,378.00,VWS V14.00,2013-11-02 21:10:00,
2013-11-02 16:15:00,66.5,40.8,30.08,WNW,287,5.0,8.0,39,0.00,,---,0.00,366.00,VWS V14.00,2013-11-02 21:15:00,
2013-11-02 16:20:00,66.3,41.3,30.08,NW,322,5.0,11.0,40,0.00,,---,0.00,352.00,VWS V14.00,2013-11-02 21:20:00,
2013-11-02 16:25:00,66.2,41.8,30.08,North,355,9.0,12.0,41,0.00,,---,0.00,334.00,VWS V14.00,2013-11-02 21:25:00,
2013-11-02 16:30:00,66.2,41.8,30.08,North,5,5.0,11.0,41,0.00,,---,0.00,320.00,VWS V14.00,2013-11-02 21:30:00,
2013-11-02 16:35:00,66.2,43.1,30.08,NW,313,5.0,5.0,43,0.00,,---,0.00,306.00,VWS V14.00,2013-11-02 21:35:00,
2013-11-02 16:40:00,66.2,42.5,30.08,NW,322,6.0,7.0,42,0.00,,---,0.00,288.00,VWS V14.00,2013-11-02 21:40:00,
2013-11-02 16:45:00,65.9,41.6,30.09,North,355,6.0,10.0,41,0.00,,---,0.00,267.00,VWS V14.00,2013-11-02 21:45:00,
2013-11-02 16:50:00,65.5,42.4,30.09,NNW,341,4.0,11.0,43,0.00,,---,0.00,253.00,VWS V14.00,2013-11-02 21:50:00,
2013-11-02 16:55:00,65.3,41.6,30.09,NW,322,5.0,9.0,42,0.00,,---,0.00,237.00,VWS V14.00,2013-11-02 21:55:00,
2013-11-02 17:00:00,65.2,40.9,30.09,NW,318,10.0,15.0,41,0.00,,---,0.00,216.00,VWS V14.00,2013-11-02 22:00:00,
2013-11-02 17:05:00,65.1,41.5,30.09,WNW,285,7.0,8.0,42,0.00,,---,0.00,197.00,VWS V14.00,2013-11-02 22:05:00,
2013-11-02 17:10:00,64.9,41.9,30.09,NNW,338,3.0,4.0,43,0.00,,---,0.00,174.00,VWS V14.00,2013-11-02 22:10:00,
2013-11-02 17:15:00,64.8,42.4,30.09,NNW,347,7.0,10.0,44,0.00,,---,0.00,153.00,VWS V14.00,2013-11-02 22:15:00,
2013-11-02 17:20:00,64.6,42.2,30.10,North,351,4.0,9.0,44,0.00,,---,0.00,134.00,VWS V14.00,2013-11-02 22:20:00,
2013-11-02 17:25:00,64.4,42.6,30.10,NNW,343,10.0,10.0,45,0.00,,---,0.00,118.00,VWS V14.00,2013-11-02 22:25:00,
2013-11-02 17:30:00,64.1,41.8,30.10,NNW,340,5.0,9.0,44,0.00,,---,0.00,100.00,VWS V14.00,2013-11-02 22:30:00,
2013-11-02 17:35:00,63.8,42.1,30.10,NNW,344,6.0,8.0,45,0.00,,---,0.00,83.00,VWS V14.00,2013-11-02 22:35:00,
2013-11-02 17:40:00,63.5,41.8,30.11,NW,321,6.0,8.0,45,0.00,,---,0.00,63.00,VWS V14.00,2013-11-02 22:40:00,
2013-11-02 17:45:00,63.4,42.3,30.11,NW,320,3.0,5.0,46,0.00,,---,0.00,49.00,VWS V14.00,2013-11-02 22:45:00,
2013-11-02 17:50:00,63.1,42.6,30.11,NNW,339,3.0,5.0,47,0.00,,---,0.00,35.00,VWS V14.00,2013-11-02 22:50:00,
2013-11-02 17:55:00,62.8,42.3,30.11,NNW,337,3.0,6.0,47,0.00,,---,0.00,26.00,VWS V14.00,2013-11-02 22:55:00,
2013-11-02 18:00:00,62.5,42.6,30.11,NNW,337,4.0,7.0,48,0.00,,---,0.00,18.00,VWS V14.00,2013-11-02 23:00:00,
2013-11-02 18:05:00,62.2,42.3,30.12,NNW,342,5.0,9.0,48,0.00,,---,0.00,12.00,VWS V14.00,2013-11-02 23:05:00,
2013-11-02 18:10:00,61.8,42.5,30.12,North,355,6.0,6.0,49,0.00,,---,0.00,9.00,VWS V14.00,2013-11-02 23:10:00,
2013-11-02 18:15:00,61.5,43.2,30.12,NNW,338,1.0,3.0,51,0.00,,---,0.00,5.00,VWS V14.00,2013-11-02 23:15:00,
2013-11-02 18:20:00,61.1,42.8,30.13,North,351,3.0,3.0,51,0.00,,---,0.00,0.00,VWS V14.00,2013-11-02 23:20:00,
2013-11-02 18:25:00,60.8,43.1,30.13,NNW,329,4.0,4.0,52,0.00,,---,0.00,0.00,VWS V14.00,2013-11-02 23:25:00,
2013-11-02 18:30:00,60.4,42.7,30.13,NW,319,3.0,4.0,52,0.00,,---,0.00,0.00,VWS V14.00,2013-11-02 23:30:00,
2013-11-02 18:35:00,60.1,42.9,30.13,NNW,340,3.0,5.0,53,0.00,,---,0.00,0.00,VWS V14.00,2013-11-02 23:35:00,
2013-11-02 18:40:00,59.9,42.7,30.13,NW,312,2.0,3.0,53,0.00,,---,0.00,0.00,VWS V14.00,2013-11-02 23:40:00,
2013-11-02 18:45:00,59.7,43.0,30.13,NNW,329,3.0,3.0,54,0.00,,---,0.00,0.00,VWS V14.00,2013-11-02 23:45:00,
2013-11-02 18:50:00,59.5,42.9,30.14,NW,305,1.0,2.0,54,0.00,,---,0.00,0.00,VWS V14.00,2013-11-02 23:50:00,
2013-11-02 18:55:00,59.3,43.2,30.14,NW,317,1.0,2.0,55,0.00,,---,0.00,0.00,VWS V14.00,2013-11-02 23:55:00,
2013-11-02 19:00:00,59.1,43.4,30.14,NW,317,2.0,3.0,56,0.00,,---,0.00,0.00,VWS V14.00,2013-11-03 00:00:00,
2013-11-02 19:05:00,58.8,43.6,30.14,North,355,2.0,3.0,57,0.00,,---,0.00,0.00,VWS V14.00,2013-11-03 00:05:00,
2013-11-02 19:10:00,58.3,43.2,30.15,NNW,331,2.0,4.0,57,0.00,,---,0.00,0.00,VWS V14.00,2013-11-03 00:10:00,
2013-11-02 19:15:00,58.0,43.3,30.15,NNW,331,2.0,3.0,58,0.00,,---,0.00,0.00,VWS V14.00,2013-11-03 00:15:00,
2013-11-02 19:20:00,57.7,43.0,30.15,NNW,343,1.0,1.0,58,0.00,,---,0.00,0.00,VWS V14.00,2013-11-03 00:20:00,
2013-11-02 19:25:00,57.6,43.4,30.16,NNW,339,0.0,0.0,59,0.00,,---,0.00,0.00,VWS V14.00,2013-11-03 00:25:00,
2013-11-02 19:30:00,57.4,43.6,30.16,NW,322,2.0,2.0,60,0.00,,---,0.00,0.00,VWS V14.00,2013-11-03 00:30:00,
2013-11-02 19:35:00,57.2,43.5,30.16,NNW,329,2.0,2.0,60,0.00,,---,0.00,0.00,VWS V14.00,2013-11-03 00:35:00,
2013-11-02 19:40:00,57.1,43.8,30.16,NNW,335,2.0,2.0,61,0.00,,---,0.00,0.00,VWS V14.00,2013-11-03 00:40:00,
2013-11-02 19:45:00,56.9,43.6,30.16,NNW,335,1.0,2.0,61,0.00,,---,0.00,0.00,VWS V14.00,2013-11-03 00:45:00,
2013-11-02 19:50:00,56.8,43.9,30.17,NNW,333,1.0,1.0,62,0.00,,---,0.00,0.00,VWS V14.00,2013-11-03 00:50:00,
2013-11-02 19:55:00,56.4,44.4,30.17,NNW,333,0.0,1.0,64,0.00,,---,0.00,0.00,VWS V14.00,2013-11-03 00:55:00,
2013-11-02 20:00:00,56.1,44.1,30.17,NNW,333,1.0,1.0,64,0.00,,---,0.00,0.00,VWS V14.00,2013-11-03 01:00:00,
2013-11-02 20:05:00,55.9,44.3,30.17,NNW,333,1.0,2.0,65,0.00,,---,0.00,0.00,VWS V14.00,2013-11-03 01:05:00,
2013-11-02 20:10:00,55.7,44.1,30.17,NNW,333,0.0,1.0,65,0.00,,---,0.00,0.00,VWS V14.00,2013-11-03 01:10:00,
2013-11-02 20:15:00,55.4,44.2,30.17,NNW,333,0.0,1.0,66,0.00,,---,0.00,0.00,VWS V14.00,2013-11-03 01:15:00,
2013-11-02 20:20:00,55.2,44.0,30.17,NNW,333,1.0,1.0,66,0.00,,---,0.00,0.00,VWS V14.00,2013-11-03 01:20:00,
2013-11-02 20:25:00,54.9,44.2,30.18,NNW,336,1.0,2.0,67,0.00,,---,0.00,0.00,VWS V14.00,2013-11-03 01:25:00,
2013-11-02 20:30:00,54.6,44.3,30.18,NNW,336,1.0,2.0,68,0.00,,---,0.00,0.00,VWS V14.00,2013-11-03 01:30:00,
2013-11-02 20:40:00,54.3,44.4,30.18,North,355,1.0,1.0,69,0.00,,---,0.00,0.00,VWS V14.00,2013-11-03 01:40:00,
2013-11-02 20:45:00,54.2,44.6,30.18,North,355,2.0,2.0,70,0.00,,---,0.00,0.00,VWS V14.00,2013-11-03 01:45:00,
2013-11-02 20:50:00,54.0,44.5,30.18,North,355,2.0,2.0,70,0.00,,---,0.00,0.00,VWS V14.00,2013-11-03 01:50:00,
2013-11-02 20:55:00,53.8,44.6,30.19,North,355,1.0,2.0,71,0.00,,---,0.00,0.00,VWS V14.00,2013-11-03 01:55:00,
2013-11-02 21:00:00,53.7,44.9,30.19,North,355,1.0,1.0,72,0.00,,---,0.00,0.00,VWS V14.00,2013-11-03 02:00:00,
2013-11-02 21:05:00,53.6,44.8,30.19,North,355,1.0,1.0,72,0.00,,---,0.00,0.00,VWS V14.00,2013-11-03 02:05:00,
2013-11-02 21:10:00,53.4,45.0,30.19,North,355,1.0,1.0,73,0.00,,---,0.00,0.00,VWS V14.00,2013-11-03 02:10:00,
2013-11-02 21:15:00,53.2,45.1,30.19,North,355,1.0,2.0,74,0.00,,---,0.00,0.00,VWS V14.00,2013-11-03 02:15:00,
2013-11-02 21:20:00,53.0,45.0,30.19,North,355,0.0,0.0,74,0.00,,---,0.00,0.00,VWS V14.00,2013-11-03 02:20:00,
2013-11-02 21:25:00,52.8,44.8,30.19,North,355,0.0,0.0,74,0.00,,---,0.00,0.00,VWS V14.00,2013-11-03 02:25:00,
2013-11-02 21:30:00,52.6,44.6,30.20,North,355,0.0,1.0,74,0.00,,---,0.00,0.00,VWS V14.00,2013-11-03 02:30:00,
2013-11-02 21:35:00,52.3,44.6,30.20,North,355,2.0,2.0,75,0.00,,---,0.00,0.00,VWS V14.00,2013-11-03 02:35:00,
2013-11-02 21:40:00,52.0,44.7,30.20,North,355,1.0,1.0,76,0.00,,---,0.00,0.00,VWS V14.00,2013-11-03 02:40:00,
2013-11-02 21:45:00,51.8,44.5,30.20,North,355,0.0,0.0,76,0.00,,---,0.00,0.00,VWS V14.00,2013-11-03 02:45:00,
2013-11-02 21:50:00,51.6,44.3,30.20,North,355,0.0,1.0,76,0.00,,---,0.00,0.00,VWS V14.00,2013-11-03 02:50:00,
2013-11-02 21:54:00,51.4,44.4,30.20,North,355,1.0,1.0,77,0.00,,---,0.00,0.00,VWS V14.00,2013-11-03 02:54:00,
2013-11-02 21:59:00,51.1,44.5,30.20,North,355,1.0,1.0,78,0.00,,---,0.00,0.00,VWS V14.00,2013-11-03 02:59:00,
2013-11-02 22:04:00,50.7,44.4,30.20,North,355,1.0,1.0,79,0.00,,---,0.00,0.00,VWS V14.00,2013-11-03 03:04:00,
2013-11-02 22:09:00,50.5,44.6,30.20,North,355,0.0,1.0,80,0.00,,---,0.00,0.00,VWS V14.00,2013-11-03 03:09:00,
2013-11-02 22:14:00,50.4,44.5,30.20,North,355,1.0,1.0,80,0.00,,---,0.00,0.00,VWS V14.00,2013-11-03 03:14:00,
2013-11-02 22:19:00,50.2,44.3,30.20,North,355,0.0,1.0,80,0.00,,---,0.00,0.00,VWS V14.00,2013-11-03 03:19:00,
2013-11-02 22:24:00,50.0,44.1,30.21,North,355,0.0,0.0,80,0.00,,---,0.00,0.00,VWS V14.00,2013-11-03 03:24:00,
2013-11-02 22:29:00,49.8,44.2,30.21,NNE,22,2.0,2.0,81,0.00,,---,0.00,0.00,VWS V14.00,2013-11-03 03:29:00,
2013-11-02 22:34:00,49.6,44.3,30.21,ENE,75,1.0,1.0,82,0.00,,---,0.00,0.00,VWS V14.00,2013-11-03 03:34:00,
2013-11-02 22:39:00,49.5,44.6,30.21,ENE,75,1.0,2.0,83,0.00,,---,0.00,0.00,VWS V14.00,2013-11-03 03:39:00,
2013-11-02 22:44:00,49.3,44.4,30.21,ENE,75,1.0,1.0,83,0.00,,---,0.00,0.00,VWS V14.00,2013-11-03 03:44:00,
2013-11-02 22:49:00,49.1,44.5,30.22,ENE,75,1.0,1.0,84,0.00,,---,0.00,0.00,VWS V14.00,2013-11-03 03:49:00,
2013-11-02 22:54:00,48.9,44.3,30.22,ENE,75,1.0,1.0,84,0.00,,---,0.00,0.00,VWS V14.00,2013-11-03 03:54:00,
2013-11-02 22:59:00,48.8,44.5,30.21,ENE,74,1.0,2.0,85,0.00,,---,0.00,0.00,VWS V14.00,2013-11-03 03:59:00,
2013-11-02 23:01:00,48.8,44.5,30.21,ENE,74,1.0,2.0,85,0.00,,---,0.00,0.00,VWS V14.00,2013-11-03 04:01:00,
2013-11-02 23:06:00,48.6,44.3,30.22,ENE,74,1.0,1.0,85,0.00,,---,0.00,0.00,VWS V14.00,2013-11-03 04:06:00,
2013-11-02 23:11:00,48.5,44.2,30.21,ENE,74,1.0,1.0,85,0.00,,---,0.00,0.00,VWS V14.00,2013-11-03 04:11:00,
2013-11-02 23:16:00,48.4,44.1,30.21,ENE,74,0.0,0.0,85,0.00,,---,0.00,0.00,VWS V14.00,2013-11-03 04:16:00,
2013-11-02 23:21:00,48.3,44.3,30.21,ENE,74,0.0,1.0,86,0.00,,---,0.00,0.00,VWS V14.00,2013-11-03 04:21:00,
2013-11-02 23:26:00,47.9,43.6,30.21,ENE,74,1.0,2.0,85,0.00,,---,0.00,0.00,VWS V14.00,2013-11-03 04:26:00,
2013-11-02 23:31:00,47.4,43.1,30.21,ENE,74,0.0,0.0,85,0.00,,---,0.00,0.00,VWS V14.00,2013-11-03 04:31:00,
2013-11-02 23:36:00,47.3,43.0,30.22,ENE,74,1.0,2.0,85,0.00,,---,0.00,0.00,VWS V14.00,2013-11-03 04:36:00,
2013-11-02 23:41:00,47.2,43.2,30.21,ENE,74,0.0,1.0,86,0.00,,---,0.00,0.00,VWS V14.00,2013-11-03 04:41:00,
2013-11-02 23:46:00,47.1,43.1,30.21,ENE,74,0.0,0.0,86,0.00,,---,0.00,0.00,VWS V14.00,2013-11-03 04:46:00,
2013-11-02 23:51:00,46.9,42.9,30.21,ENE,74,0.0,0.0,86,0.00,,---,0.00,0.00,VWS V14.00,2013-11-03 04:51:00,
2013-11-02 23:56:00,46.8,42.8,30.21,ENE,74,1.0,1.0,86,0.00,,---,0.00,0.00,VWS V14.00,2013-11-03 04:56:00,